T7PYR EGCC-LEGE

Flight info

Callsign T7PYR
Flight time 1h 38m
Altitude 45000
Route LISTO2S LISTO P18 TELBA L151 KIDLI UN859 SOPIL DCT BALAN DCT EVPOK DCT NARAK DCT GAI DCT PPG/N0319F190 A27 KANIG KANIG1D
Aircraft GL7T/M-SDFGIRWYB1/S

Departure

Time 2026-05-05 21:16
Airport Manchester Airport (EGCC)

Arrival

Time 2026-05-05 22:55
Airport Girona-Costa Brava Airport (LEGE)
Time Latitude Longitude Altitude Speed Heading
2026-05-05 20:44 53.35591 -2.28123 242 ft 0 kts 65°
2026-05-05 20:58 53.35591 -2.28124 242 ft 2 kts 65°
2026-05-05 20:59 53.35576 -2.28134 242 ft 2 kts
2026-05-05 20:59 53.35560 -2.28134 242 ft 2 kts 359°
2026-05-05 20:59 53.35543 -2.28135 242 ft 2 kts
2026-05-05 20:59 53.35527 -2.28136 242 ft 2 kts
2026-05-05 21:00 53.35511 -2.28138 241 ft 2 kts
2026-05-05 21:00 53.35494 -2.28140 241 ft 2 kts
2026-05-05 21:00 53.35477 -2.28143 240 ft 2 kts
2026-05-05 21:00 53.35461 -2.28148 240 ft 2 kts 12°
2026-05-05 21:01 53.35456 -2.28151 240 ft 0 kts 17°
2026-05-05 21:06 53.35463 -2.28147 240 ft 5 kts 22°
2026-05-05 21:06 53.35498 -2.28118 241 ft 7 kts 31°
2026-05-05 21:06 53.35547 -2.28056 243 ft 12 kts 46°
2026-05-05 21:06 53.35591 -2.27970 246 ft 8 kts 51°
2026-05-05 21:07 53.35607 -2.27924 247 ft 3 kts 90°
2026-05-05 21:07 53.35599 -2.27901 247 ft 4 kts 162°
2026-05-05 21:07 53.35551 -2.27908 246 ft 11 kts 187°
2026-05-05 21:07 53.35477 -2.27923 244 ft 11 kts 193°
2026-05-05 21:08 53.35406 -2.28001 241 ft 13 kts 224°
2026-05-05 21:08 53.35337 -2.28114 238 ft 16 kts 225°
2026-05-05 21:08 53.35257 -2.28250 233 ft 17 kts 229°
2026-05-05 21:08 53.35181 -2.28404 229 ft 18 kts 232°
2026-05-05 21:09 53.35096 -2.28583 224 ft 21 kts 231°
2026-05-05 21:09 53.35009 -2.28751 219 ft 18 kts 225°
2026-05-05 21:09 53.34947 -2.28857 215 ft 10 kts 226°
2026-05-05 21:09 53.34892 -2.28955 216 ft 10 kts 226°
2026-05-05 21:10 53.34844 -2.29035 210 ft 8 kts 217°
2026-05-05 21:10 53.34813 -2.29063 208 ft 0 kts 198°
2026-05-05 21:10 53.34813 -2.29064 208 ft 0 kts 198°
2026-05-05 21:13 53.34755 -2.29076 207 ft 12 kts 170°
2026-05-05 21:13 53.34671 -2.28988 209 ft 12 kts 96°
2026-05-05 21:13 53.34703 -2.28888 209 ft 8 kts 50°
2026-05-05 21:13 53.34726 -2.28840 214 ft 3 kts 51°
2026-05-05 21:14 53.34735 -2.28822 215 ft 1 kts 51°
2026-05-05 21:14 53.34739 -2.28814 210 ft 0 kts 51°
2026-05-05 21:16 53.34765 -2.28758 213 ft 39 kts 52°
2026-05-05 21:16 53.35177 -2.27899 259 ft 139 kts 52°
2026-05-05 21:16 53.35856 -2.26460 1009 ft 179 kts 54°
2026-05-05 21:16 53.36643 -2.24820 1809 ft 181 kts 54°
2026-05-05 21:17 53.37381 -2.23122 2578 ft 182 kts 60°
2026-05-05 21:17 53.37584 -2.20952 3208 ft 204 kts 97°
2026-05-05 21:17 53.36849 -2.18867 3835 ft 215 kts 132°
2026-05-05 21:17 53.35758 -2.17179 4619 ft 221 kts 141°
2026-05-05 21:18 53.34308 -2.16248 5285 ft 228 kts 173°
2026-05-05 21:18 53.32726 -2.16505 5968 ft 234 kts 194°
2026-05-05 21:18 53.30999 -2.17283 6718 ft 266 kts 197°
2026-05-05 21:18 53.29117 -2.17831 7427 ft 279 kts 189°
2026-05-05 21:19 53.27155 -2.18041 8183 ft 286 kts 186°
2026-05-05 21:19 53.25146 -2.18200 8967 ft 290 kts 187°
2026-05-05 21:19 53.23111 -2.18512 9716 ft 297 kts 189°
2026-05-05 21:19 53.21065 -2.18907 10130 ft 313 kts 190°
2026-05-05 21:20 53.18676 -2.19340 10490 ft 362 kts 189°
2026-05-05 21:20 53.16136 -2.19720 10936 ft 371 kts 188°
2026-05-05 21:20 53.13557 -2.20084 11439 ft 376 kts 188°
2026-05-05 21:20 53.10872 -2.20561 12546 ft 402 kts 191°
2026-05-05 21:21 53.08226 -2.21296 13705 ft 383 kts 193°
2026-05-05 21:21 53.05580 -2.21845 14424 ft 384 kts 188°
2026-05-05 21:21 53.02916 -2.22044 15064 ft 385 kts 185°
2026-05-05 21:21 53.00221 -2.22172 15717 ft 387 kts 185°
2026-05-05 21:22 52.97568 -2.22456 16384 ft 389 kts 188°
2026-05-05 21:22 52.94873 -2.22988 17064 ft 391 kts 191°
2026-05-05 21:22 52.92150 -2.23521 17735 ft 396 kts 189°
2026-05-05 21:22 52.89384 -2.23900 18400 ft 399 kts 187°
2026-05-05 21:23 52.86614 -2.24262 19013 ft 399 kts 189°
2026-05-05 21:23 52.83883 -2.25201 19673 ft 402 kts 198°
2026-05-05 21:23 52.81146 -2.26355 20296 ft 407 kts 197°
2026-05-05 21:23 52.78378 -2.27401 20927 ft 409 kts 196°
2026-05-05 21:24 52.75585 -2.28397 21590 ft 414 kts 196°
2026-05-05 21:24 52.72759 -2.29454 22239 ft 417 kts 196°
2026-05-05 21:24 52.69870 -2.29920 22690 ft 426 kts 184°
2026-05-05 21:24 52.66893 -2.29518 23219 ft 430 kts 174°
2026-05-05 21:25 52.63980 -2.28268 23720 ft 436 kts 165°
2026-05-05 21:25 52.61206 -2.26174 24153 ft 442 kts 154°
2026-05-05 21:25 52.58618 -2.23403 24678 ft 444 kts 149°
2026-05-05 21:25 52.56064 -2.20543 25246 ft 445 kts 149°
2026-05-05 21:26 52.53495 -2.17744 25830 ft 451 kts 150°
2026-05-05 21:26 52.50860 -2.14920 26425 ft 454 kts 150°
2026-05-05 21:26 52.48211 -2.12040 27017 ft 457 kts 149°
2026-05-05 21:26 52.45565 -2.09131 27643 ft 460 kts 149°
2026-05-05 21:27 52.42889 -2.06219 28278 ft 464 kts 149°
2026-05-05 21:27 52.40173 -2.03301 28932 ft 469 kts 150°
2026-05-05 21:27 52.37442 -2.00351 29590 ft 472 kts 149°
2026-05-05 21:27 52.34694 -1.97364 30240 ft 476 kts 149°
2026-05-05 21:28 52.31917 -1.94382 30827 ft 479 kts 151°
2026-05-05 21:28 52.28902 -1.91988 31478 ft 483 kts 161°
2026-05-05 21:28 52.25692 -1.90329 32149 ft 485 kts 167°
2026-05-05 21:28 52.22405 -1.89025 32802 ft 485 kts 170°
2026-05-05 21:29 52.19106 -1.87870 33440 ft 484 kts 171°
2026-05-05 21:29 52.15846 -1.86791 34063 ft 484 kts 172°
2026-05-05 21:29 52.12575 -1.85489 34542 ft 486 kts 167°
2026-05-05 21:29 52.09350 -1.83795 35062 ft 488 kts 164°
2026-05-05 21:30 52.06198 -1.81742 35543 ft 490 kts 158°
2026-05-05 21:30 52.03207 -1.79099 36044 ft 492 kts 152°
2026-05-05 21:30 52.00302 -1.76110 36603 ft 491 kts 149°
2026-05-05 21:30 51.97477 -1.73023 37192 ft 490 kts 148°
2026-05-05 21:31 51.94673 -1.69879 37816 ft 490 kts 148°
2026-05-05 21:31 51.91880 -1.66713 38452 ft 491 kts 148°
2026-05-05 21:31 51.89081 -1.63525 38949 ft 493 kts 148°
2026-05-05 21:31 51.86271 -1.60318 39333 ft 494 kts 148°
2026-05-05 21:32 51.83476 -1.57124 39726 ft 493 kts 148°
2026-05-05 21:32 51.80709 -1.53961 40121 ft 492 kts 148°
2026-05-05 21:32 51.77910 -1.50764 40524 ft 493 kts 148°
2026-05-05 21:32 51.75098 -1.47556 40947 ft 496 kts 148°
2026-05-05 21:33 51.72275 -1.44340 41371 ft 500 kts 148°
2026-05-05 21:33 51.69415 -1.41087 41813 ft 503 kts 148°
2026-05-05 21:33 51.66541 -1.37820 42272 ft 505 kts 148°
2026-05-05 21:33 51.63659 -1.34551 42644 ft 507 kts 148°
2026-05-05 21:34 51.60766 -1.31270 43001 ft 506 kts 148°
2026-05-05 21:34 51.57893 -1.28011 43358 ft 505 kts 147°
2026-05-05 21:34 51.54982 -1.24973 43760 ft 503 kts 153°
2026-05-05 21:34 51.51827 -1.22557 44215 ft 500 kts 162°
2026-05-05 21:35 51.48582 -1.20819 44640 ft 499 kts 165°
2026-05-05 21:35 51.45286 -1.18932 44978 ft 503 kts 163°
2026-05-05 21:35 51.43107 -1.17682 45195 ft 504 kts 162°
2026-05-05 21:35 51.39858 -1.15508 45353 ft 507 kts 158°
2026-05-05 21:36 51.36695 -1.13042 45576 ft 505 kts 156°
2026-05-05 21:36 51.32544 -1.09651 45915 ft 503 kts 156°
2026-05-05 21:36 51.29361 -1.07339 46191 ft 501 kts 160°
2026-05-05 21:36 51.27194 -1.05886 46361 ft 501 kts 160°
2026-05-05 21:37 51.23988 -1.03643 46564 ft 502 kts 158°
2026-05-05 21:37 51.20832 -1.01234 46813 ft 504 kts 157°
2026-05-05 21:37 51.17661 -0.98834 47075 ft 503 kts 158°
2026-05-05 21:37 51.14499 -0.96595 47337 ft 503 kts 159°
2026-05-05 21:38 51.11299 -0.94348 47573 ft 503 kts 158°
2026-05-05 21:38 51.08115 -0.92010 47807 ft 504 kts 158°
2026-05-05 21:38 51.04934 -0.89647 48060 ft 503 kts 158°
2026-05-05 21:38 51.01736 -0.87348 48318 ft 503 kts 159°
2026-05-05 21:39 50.98543 -0.85089 48559 ft 503 kts 159°
2026-05-05 21:39 50.95344 -0.82781 48791 ft 504 kts 158°
2026-05-05 21:39 50.92149 -0.80451 48967 ft 507 kts 158°
2026-05-05 21:39 50.88961 -0.78161 48954 ft 512 kts 158°
2026-05-05 21:40 50.82659 -0.72930 48942 ft 512 kts 150°
2026-05-05 21:40 50.76729 -0.66651 48982 ft 513 kts 149°
2026-05-05 21:41 50.70680 -0.60673 48937 ft 511 kts 150°
2026-05-05 21:41 50.64718 -0.54531 48962 ft 512 kts 149°
2026-05-05 21:42 50.58706 -0.48532 48949 ft 511 kts 150°
2026-05-05 21:42 50.52718 -0.42468 48962 ft 512 kts 150°
2026-05-05 21:43 50.46714 -0.36469 48942 ft 512 kts 150°
2026-05-05 21:43 50.40705 -0.30449 48935 ft 512 kts 150°
2026-05-05 21:44 50.34732 -0.24500 48946 ft 512 kts 150°
2026-05-05 21:44 50.28711 -0.18517 48934 ft 512 kts 150°
2026-05-05 21:45 50.22697 -0.12555 48942 ft 512 kts 150°
2026-05-05 21:45 50.16668 -0.06604 48927 ft 512 kts 150°
2026-05-05 21:46 50.10555 -0.00909 48971 ft 510 kts 158°
2026-05-05 21:46 50.03869 0.02394 48937 ft 506 kts 169°
2026-05-05 21:47 49.97022 0.05080 48930 ft 508 kts 169°
2026-05-05 21:47 49.90160 0.07792 48922 ft 508 kts 169°
2026-05-05 21:48 49.83296 0.10459 48921 ft 508 kts 169°
2026-05-05 21:48 49.76436 0.13157 48913 ft 508 kts 169°
2026-05-05 21:49 49.69619 0.15796 48905 ft 508 kts 169°
2026-05-05 21:49 49.62763 0.18532 48904 ft 508 kts 168°
2026-05-05 21:50 49.55919 0.21322 48903 ft 508 kts 168°
2026-05-05 21:50 49.49110 0.24026 48902 ft 508 kts 168°
2026-05-05 21:51 49.42262 0.26789 48904 ft 508 kts 168°
2026-05-05 21:51 49.35413 0.29507 48908 ft 508 kts 168°
2026-05-05 21:52 49.25177 0.33704 48902 ft 508 kts 167°
2026-05-05 21:53 49.18415 0.36603 48907 ft 508 kts 168°
2026-05-05 21:53 49.11586 0.39429 48909 ft 508 kts 167°
2026-05-05 21:54 49.04762 0.42320 48913 ft 508 kts 167°
2026-05-05 21:54 48.97933 0.45147 48906 ft 508 kts 167°
2026-05-05 21:55 48.91155 0.47987 48912 ft 508 kts 167°
2026-05-05 21:55 48.84310 0.50817 48908 ft 507 kts 167°
2026-05-05 21:56 48.77531 0.53630 48911 ft 507 kts 168°
2026-05-05 21:56 48.70689 0.56271 48908 ft 506 kts 169°
2026-05-05 21:57 48.63912 0.58941 48903 ft 506 kts 168°
2026-05-05 21:57 48.57091 0.61603 48900 ft 505 kts 168°
2026-05-05 21:58 48.50271 0.64257 48894 ft 505 kts 168°
2026-05-05 21:58 48.43539 0.67051 48907 ft 505 kts 167°
2026-05-05 21:59 48.36742 0.69781 48902 ft 504 kts 168°
2026-05-05 21:59 48.29971 0.72533 48900 ft 504 kts 167°
2026-05-05 22:00 48.23189 0.75265 48892 ft 504 kts 168°
2026-05-05 22:00 48.16400 0.77913 48887 ft 504 kts 168°
2026-05-05 22:01 48.09618 0.80592 48892 ft 504 kts 168°
2026-05-05 22:01 48.02868 0.83227 48884 ft 504 kts 168°
2026-05-05 22:02 47.96068 0.85889 48877 ft 505 kts 168°
2026-05-05 22:02 47.89273 0.88534 48883 ft 505 kts 168°
2026-05-05 22:03 47.82466 0.91179 48888 ft 504 kts 168°
2026-05-05 22:03 47.75705 0.93799 48890 ft 505 kts 168°
2026-05-05 22:04 47.68911 0.96424 48871 ft 505 kts 168°
2026-05-05 22:04 47.62106 0.99047 48880 ft 504 kts 168°
2026-05-05 22:05 47.55303 1.01661 48876 ft 504 kts 168°
2026-05-05 22:05 47.48535 1.04256 48873 ft 504 kts 168°
2026-05-05 22:06 47.41657 1.06276 48913 ft 501 kts 179°
2026-05-05 22:06 47.34739 1.06203 48876 ft 500 kts 184°
2026-05-05 22:07 47.27760 1.06072 48876 ft 501 kts 184°
2026-05-05 22:07 47.20780 1.05887 48876 ft 501 kts 184°
2026-05-05 22:08 47.13842 1.05739 48872 ft 501 kts 184°
2026-05-05 22:08 47.06863 1.05567 48872 ft 501 kts 184°
2026-05-05 22:09 46.99875 1.05397 48882 ft 501 kts 184°
2026-05-05 22:09 46.92907 1.05033 48875 ft 501 kts 185°
2026-05-05 22:10 46.85981 1.04774 48878 ft 501 kts 184°
2026-05-05 22:10 46.79013 1.04457 48875 ft 501 kts 185°
2026-05-05 22:11 46.72044 1.04172 48874 ft 501 kts 185°
2026-05-05 22:11 46.65082 1.03872 48886 ft 500 kts 185°
2026-05-05 22:12 46.58131 1.03580 48890 ft 500 kts 185°
2026-05-05 22:12 46.51196 1.03612 48844 ft 502 kts 177°
2026-05-05 22:13 46.44348 1.05712 48892 ft 505 kts 169°
2026-05-05 22:13 46.37547 1.08043 48911 ft 503 kts 171°
2026-05-05 22:14 46.30728 1.10252 48904 ft 502 kts 170°
2026-05-05 22:14 46.23911 1.12576 48912 ft 502 kts 171°
2026-05-05 22:15 46.17068 1.14630 48908 ft 502 kts 171°
2026-05-05 22:15 46.10280 1.17137 48915 ft 503 kts 169°
2026-05-05 22:16 46.03500 1.19272 48922 ft 501 kts 172°
2026-05-05 22:16 45.96692 1.21553 48902 ft 502 kts 169°
2026-05-05 22:17 45.89907 1.23774 48916 ft 501 kts 172°
2026-05-05 22:17 45.83104 1.25990 48901 ft 502 kts 170°
2026-05-05 22:18 45.76289 1.28236 48911 ft 501 kts 171°
2026-05-05 22:18 45.69469 1.30438 48908 ft 501 kts 171°
2026-05-05 22:19 45.62667 1.32667 48925 ft 501 kts 171°
2026-05-05 22:19 45.55901 1.34846 48934 ft 501 kts 171°
2026-05-05 22:20 45.49098 1.37057 48936 ft 501 kts 171°
2026-05-05 22:20 45.42294 1.39245 48937 ft 501 kts 171°
2026-05-05 22:21 45.35483 1.41441 48936 ft 501 kts 171°
2026-05-05 22:21 45.28712 1.43613 48934 ft 501 kts 171°
2026-05-05 22:22 45.21897 1.45797 48933 ft 501 kts 171°
2026-05-05 22:22 45.15081 1.47973 48935 ft 501 kts 171°
2026-05-05 22:23 45.08316 1.50130 48932 ft 501 kts 171°
2026-05-05 22:23 45.01501 1.52296 48929 ft 502 kts 171°
2026-05-05 22:24 44.94682 1.54458 48931 ft 501 kts 171°
2026-05-05 22:24 44.87902 1.56604 48942 ft 501 kts 171°
2026-05-05 22:25 44.81095 1.58752 48945 ft 501 kts 171°
2026-05-05 22:25 44.74280 1.60898 48942 ft 501 kts 171°
2026-05-05 22:26 44.67511 1.63023 48963 ft 501 kts 171°
2026-05-05 22:26 44.61801 1.64813 48945 ft 501 kts 171°
2026-05-05 22:27 44.55016 1.66934 48955 ft 501 kts 172°
2026-05-05 22:27 44.48197 1.69063 48951 ft 501 kts 172°
2026-05-05 22:28 44.41412 1.71171 48962 ft 501 kts 172°
2026-05-05 22:28 44.34602 1.73290 48951 ft 502 kts 172°
2026-05-05 22:29 44.27812 1.75265 48984 ft 499 kts 175°
2026-05-05 22:29 44.20927 1.76744 48957 ft 500 kts 175°
2026-05-05 22:30 44.14042 1.78302 48957 ft 501 kts 175°
2026-05-05 22:30 44.07157 1.79797 48959 ft 500 kts 175°
2026-05-05 22:31 44.00286 1.81327 48956 ft 500 kts 175°
2026-05-05 22:31 43.93596 1.84224 48930 ft 509 kts 159°
2026-05-05 22:32 43.87493 1.89373 48675 ft 514 kts 151°
2026-05-05 22:32 43.84550 1.92061 47869 ft 508 kts 152°
2026-05-05 22:32 43.81582 1.94649 47085 ft 501 kts 153°
2026-05-05 22:32 43.78632 1.97181 46313 ft 495 kts 153°
2026-05-05 22:33 43.75724 1.99751 45564 ft 493 kts 152°
2026-05-05 22:33 43.72842 2.02334 44810 ft 492 kts 152°
2026-05-05 22:33 43.69957 2.04870 44047 ft 491 kts 153°
2026-05-05 22:33 43.67054 2.07384 43299 ft 491 kts 153°
2026-05-05 22:34 43.64164 2.09907 42547 ft 491 kts 153°
2026-05-05 22:34 43.61320 2.12419 41808 ft 491 kts 153°
2026-05-05 22:34 43.58435 2.14953 41066 ft 490 kts 153°
2026-05-05 22:34 43.55543 2.17464 40316 ft 489 kts 153°
2026-05-05 22:35 43.52669 2.19962 39575 ft 488 kts 153°
2026-05-05 22:35 43.49804 2.22465 38832 ft 487 kts 153°
2026-05-05 22:35 43.46945 2.24962 38037 ft 485 kts 153°
2026-05-05 22:35 43.44123 2.27414 37309 ft 484 kts 153°
2026-05-05 22:36 43.41275 2.29878 36570 ft 483 kts 154°
2026-05-05 22:36 43.38423 2.32350 35812 ft 481 kts 154°
2026-05-05 22:36 43.35606 2.34800 35081 ft 473 kts 154°
2026-05-05 22:36 43.32846 2.37198 34370 ft 465 kts 154°
2026-05-05 22:37 43.30159 2.39518 33629 ft 457 kts 154°
2026-05-05 22:37 43.27475 2.41832 32933 ft 450 kts 154°
2026-05-05 22:37 43.24837 2.44108 32251 ft 445 kts 154°
2026-05-05 22:37 43.22233 2.46355 31589 ft 439 kts 154°
2026-05-05 22:38 43.19686 2.48552 30937 ft 434 kts 154°
2026-05-05 22:38 43.17136 2.50744 30279 ft 429 kts 154°
2026-05-05 22:38 43.14618 2.52908 29593 ft 425 kts 154°
2026-05-05 22:38 43.12120 2.55055 28947 ft 420 kts 154°
2026-05-05 22:39 43.09647 2.57177 28315 ft 415 kts 154°
2026-05-05 22:39 43.07240 2.59242 27689 ft 411 kts 154°
2026-05-05 22:39 43.04828 2.61311 27070 ft 406 kts 154°
2026-05-05 22:39 43.02443 2.63346 26455 ft 402 kts 154°
2026-05-05 22:40 43.00078 2.65365 25847 ft 398 kts 154°
2026-05-05 22:40 42.97738 2.67368 25237 ft 394 kts 154°
2026-05-05 22:40 42.95427 2.69342 24643 ft 390 kts 154°
2026-05-05 22:40 42.93133 2.71297 24059 ft 386 kts 154°
2026-05-05 22:41 42.90893 2.73199 23468 ft 382 kts 153°
2026-05-05 22:41 42.88641 2.75113 22851 ft 379 kts 153°
2026-05-05 22:41 42.86400 2.77022 22280 ft 377 kts 153°
2026-05-05 22:41 42.84210 2.78887 21712 ft 374 kts 153°
2026-05-05 22:42 42.82006 2.80759 21153 ft 372 kts 153°
2026-05-05 22:42 42.79814 2.82613 20584 ft 369 kts 153°
2026-05-05 22:42 42.77631 2.84458 20032 ft 367 kts 153°
2026-05-05 22:42 42.75444 2.86242 19485 ft 363 kts 156°
2026-05-05 22:43 42.73150 2.87499 18944 ft 356 kts 167°
2026-05-05 22:43 42.70779 2.88482 18390 ft 355 kts 168°
2026-05-05 22:43 42.68421 2.89491 17811 ft 354 kts 167°
2026-05-05 22:43 42.66088 2.90527 17275 ft 351 kts 167°
2026-05-05 22:44 42.63762 2.91531 16740 ft 349 kts 167°
2026-05-05 22:44 42.61449 2.92508 16206 ft 346 kts 167°
2026-05-05 22:44 42.59153 2.93488 15675 ft 344 kts 167°
2026-05-05 22:44 42.56899 2.94464 15162 ft 342 kts 167°
2026-05-05 22:45 42.54631 2.95441 14634 ft 340 kts 167°
2026-05-05 22:45 42.52376 2.96401 14124 ft 338 kts 167°
2026-05-05 22:45 42.50145 2.97265 13606 ft 334 kts 172°
2026-05-05 22:45 42.47847 2.97557 13093 ft 329 kts 184°
2026-05-05 22:46 42.45587 2.97260 12586 ft 324 kts 194°
2026-05-05 22:46 42.43415 2.96477 12083 ft 320 kts 200°
2026-05-05 22:46 42.41331 2.95653 11593 ft 304 kts 200°
2026-05-05 22:46 42.39336 2.94898 11138 ft 292 kts 199°
2026-05-05 22:47 42.37414 2.94167 10700 ft 283 kts 200°
2026-05-05 22:47 42.35524 2.93430 10269 ft 281 kts 200°
2026-05-05 22:47 42.33670 2.92706 9854 ft 280 kts 200°
2026-05-05 22:47 42.31800 2.91984 9409 ft 279 kts 200°
2026-05-05 22:48 42.29938 2.91270 8977 ft 278 kts 199°
2026-05-05 22:48 42.28079 2.90551 8553 ft 277 kts 199°
2026-05-05 22:48 42.26242 2.89798 8134 ft 275 kts 200°
2026-05-05 22:48 42.24426 2.89064 7713 ft 275 kts 199°
2026-05-05 22:49 42.22577 2.88385 7302 ft 274 kts 198°
2026-05-05 22:49 42.20736 2.87700 6881 ft 273 kts 199°
2026-05-05 22:49 42.18905 2.86989 6472 ft 272 kts 199°
2026-05-05 22:49 42.17082 2.86279 6095 ft 272 kts 199°
2026-05-05 22:50 42.15286 2.85596 5687 ft 271 kts 198°
2026-05-05 22:50 42.13469 2.84905 5277 ft 270 kts 198°
2026-05-05 22:50 42.11672 2.84218 4912 ft 268 kts 198°
2026-05-05 22:50 42.09872 2.83522 4605 ft 267 kts 199°
2026-05-05 22:51 42.08101 2.82807 4214 ft 263 kts 199°
2026-05-05 22:51 42.06401 2.82081 3860 ft 254 kts 200°
2026-05-05 22:51 42.04816 2.81422 3485 ft 229 kts 199°
2026-05-05 22:51 42.03293 2.80841 3177 ft 223 kts 198°
2026-05-05 22:52 42.01898 2.80333 2843 ft 187 kts 198°
2026-05-05 22:52 42.00676 2.79895 2751 ft 177 kts 197°
2026-05-05 22:52 41.99494 2.79481 2537 ft 177 kts 197°
2026-05-05 22:52 41.98304 2.79090 2304 ft 174 kts 197°
2026-05-05 22:53 41.97128 2.78659 2086 ft 174 kts 199°
2026-05-05 22:53 41.95972 2.78191 1776 ft 171 kts 200°
2026-05-05 22:53 41.94949 2.77784 1565 ft 139 kts 198°
2026-05-05 22:53 41.94071 2.77499 1261 ft 127 kts 194°
2026-05-05 22:54 41.93223 2.77216 1013 ft 123 kts 197°
2026-05-05 22:54 41.92402 2.76922 800 ft 121 kts 197°
2026-05-05 22:54 41.91594 2.76621 558 ft 120 kts 197°
2026-05-05 22:54 41.90866 2.76342 461 ft 79 kts 194°
2026-05-05 22:55 41.90520 2.76215 450 ft 42 kts 195°
2026-05-05 22:55 41.90262 2.76119 427 ft 29 kts 195°
2026-05-05 22:55 41.90112 2.76077 429 ft 15 kts 149°
2026-05-05 22:55 41.90068 2.76209 423 ft 16 kts 103°
2026-05-05 22:56 41.90046 2.76323 416 ft 9 kts 106°
2026-05-05 22:56 41.90029 2.76407 419 ft 8 kts 105°
2026-05-05 22:56 41.90048 2.76459 422 ft 6 kts 20°
2026-05-05 22:56 41.90084 2.76472 427 ft 6 kts 15°
2026-05-05 22:57 41.90131 2.76491 424 ft 8 kts 23°
2026-05-05 22:57 41.90182 2.76521 432 ft 9 kts 12°
2026-05-05 22:57 41.90232 2.76534 435 ft 5 kts 12°
2026-05-05 22:57 41.90254 2.76541 436 ft 0 kts 15°